Powrót do katalogu

NOAA 16 DEB

AktywnySSO
NORAD 41353·DEBRIS·🇺🇸 United States

Wystrzelony Sep 21, 2000 z Vandenberg Space Force Base

Loading…

Następne Przeloty (najbliższe 24 godziny)

TLE

ŚwieżeSource: Space-Track

Epoka: Sep 14, 2026, 09:48 UTC

1 41353U 00055HW  26257.40864473  .00002077  00000-0  88195-3 0  9994
2 41353  98.6848 323.5288 0025087 167.0429 193.1401 14.26222633548695

Śledź NOAA 16 DEB w czasie rzeczywistym z AllMySat

Download on the App Store